EW4939 Weather Reports


Display with metric or nautical units.
time (UTC)temp
F
wind
direction
speed
MPH
gust
MPH
rain 1hr
in
rain 24hr
in
rain mn
in
humidity
%
barometer
mb
20260506160916 56 324 4.0 7.0 0.00 0.63 0.63 61 1013.9
20260506160414 55 345 2.0 3.0 0.00 0.63 0.63 64 1013.9
20260506155911 55 353 2.0 3.0 0.00 0.63 0.63 63 1013.9
20260506155408 54 20 4.0 4.0 0.00 0.63 0.63 62 1013.9
20260506153525 54 316 3.0 8.0 0.00 0.63 0.63 64 1013.5
20260506153022 53 325 4.0 4.0 0.00 0.63 0.63 66 1013.7
20260506152519 53 313 1.0 3.0 0.00 0.63 0.63 66 1014.0
20260506152017 53 42 1.0 2.0 0.00 0.63 0.63 65 1014.2
20260506151515 52 33 1.0 3.0 0.00 0.63 0.63 67 1014.1
20260506151012 52 10 2.0 4.0 0.00 0.63 0.63 66 1013.9
20260506150508 52 357 2.0 2.0 0.00 0.63 0.63 69 1013.5
20260506150005 52 317 2.0 4.0 0.00 0.63 0.63 71 1013.3
20260506145501 52 335 2.0 4.0 0.00 0.63 0.63 69 1013.2
20260506144959 51 12 2.0 3.0 0.00 0.63 0.63 73 1013.2
20260506144455 51 0 2.0 4.0 0.00 0.63 0.63 72 1013.0
20260506143954 51 6 1.0 4.0 0.00 0.63 0.63 72 1012.8
20260506143450 50 41 2.0 3.0 0.00 0.63 0.63 76 1012.7
20260506142949 50 26 3.0 7.0 0.00 0.63 0.63 75 1012.7
20260506142446 50 17 2.0 4.0 0.00 0.63 0.63 76 1012.5
20260506141944 50 13 1.0 3.0 0.00 0.63 0.63 78 1012.7
20260506141442 50 347 2.0 2.0 0.00 0.63 0.63 79 1012.7
20260506140940 50 338 4.0 6.0 0.00 0.63 0.63 79 1013.0
20260506140437 49 348 2.0 4.0 0.00 0.63 0.63 81 1012.9
20260506135933 49 31 1.0 4.0 0.00 0.63 0.63 81 1012.6
20260506135431 49 5 2.0 6.0 0.00 0.63 0.63 83 1012.7
20260506134927 48 23 2.0 4.0 0.00 0.63 0.63 84 1012.6
20260506134423 48 357 3.0 4.0 0.00 0.63 0.63 84 1012.6
20260506133920 48 344 3.0 4.0 0.00 0.63 0.63 86 1012.5
20260506133417 48 13 2.0 6.0 0.00 0.63 0.63 86 1012.6
20260506132914 48 6 2.0 6.0 0.00 0.63 0.63 86 1012.7
20260506132411 47 20 1.0 4.0 0.00 0.63 0.63 87 1012.7
20260506131909 48 321 3.0 4.0 0.00 0.63 0.63 87 1012.3
20260506131404 48 357 2.0 2.0 0.00 0.63 0.63 88 1012.2
20260506130902 47 24 2.0 3.0 0.00 0.63 0.63 88 1012.2
20260506130358 47 32 1.0 2.0 0.00 0.63 0.63 89 1012.2
20260506125856 47 31 2.0 4.0 0.00 0.63 0.63 88 1012.4
20260506125354 47 38 1.0 2.0 0.00 0.63 0.63 89 1012.4
20260506124853 47 34 0.0 1.0 0.00 0.63 0.63 89 1012.5
20260506124349 47 9 2.0 6.0 0.00 0.63 0.63 88 1012.1
20260506123847 47 352 1.0 1.0 0.00 0.63 0.63 90 1012.0
20260506123345 46 306 1.0 2.0 0.00 0.63 0.63 91 1012.1
20260506122842 46 302 2.0 2.0 0.00 0.63 0.63 93 1011.9
20260506122339 46 311 1.0 2.0 0.00 0.63 0.63 94 1012.1
20260506121837 45 9 1.0 2.0 0.00 0.63 0.63 96 1012.0
20260506121334 45 344 2.0 4.0 0.00 0.63 0.63 96 1012.0
20260506120831 45 340 2.0 2.0 0.00 0.63 0.63 97 1011.8
20260506120329 45 13 1.0 2.0 0.00 0.63 0.63 97 1011.6
20260506115826 45 8 0.0 3.0 0.00 0.63 0.63 98 1011.4
20260506115324 44 356 1.0 2.0 0.00 0.63 0.63 98 1011.3
20260506114821 44 317 2.0 3.0 0.00 0.63 0.63 98 1011.4
20260506114319 44 16 1.0 3.0 0.00 0.63 0.63 98 1011.1
20260506113817 44 343 1.0 3.0 0.00 0.63 0.63 99 1010.6
20260506113315 44 352 1.0 1.0 0.00 0.63 0.63 99 1010.5
20260506112811 44 1 1.0 1.0 0.00 0.63 0.63 99 1010.4
20260506112308 44 358 1.0 2.0 0.00 0.63 0.63 99 1010.4
20260506111806 44 300 1.0 2.0 0.00 0.63 0.63 99 1010.3
20260506111304 44 343 2.0 2.0 0.00 0.63 0.63 99 1010.3
20260506110801 44 316 1.0 2.0 0.00 0.63 0.63 99 1010.3
20260506110258 44 8 1.0 3.0 0.00 0.63 0.63 99 1010.5
20260506105754 44 36 2.0 3.0 0.00 0.63 0.63 99 1010.6
20260506105251 44 347 2.0 3.0 0.00 0.63 0.63 99 1010.5
20260506104749 44 312 2.0 2.0 0.00 0.63 0.63 99 1010.3
20260506104247 43 322 2.0 3.0 0.00 0.63 0.63 99 1009.7
20260506103744 44 14 2.0 2.0 0.00 0.63 0.63 99 1010.2
20260506103241 44 359 0.0 1.0 0.00 0.63 0.63 99 1010.0
20260506102738 44 28 1.0 2.0 0.00 0.63 0.63 99 1010.2
20260506102236 44 351 0.0 1.0 0.00 0.63 0.63 99 1010.5
20260506101733 44 328 0.0 2.0 0.00 0.63 0.63 99 1010.4
20260506101230 43 304 1.0 1.0 0.00 0.63 0.63 99 1010.0
20260506100728 44 350 1.0 2.0 0.00 0.63 0.63 99 1009.6
20260506100226 43 356 1.0 2.0 0.00 0.63 0.63 99 1009.2
20260506095724 43 33 3.0 3.0 0.00 0.63 0.63 99 1009.2
20260506095220 43 21 1.0 2.0 0.00 0.63 0.63 99 1009.1
20260506094717 43 356 1.0 2.0 0.00 0.63 0.63 99 1009.5
20260506094215 43 354 1.0 2.0 0.00 0.63 0.63 99 1009.6
20260506093714 43 18 0.0 2.0 0.00 0.63 0.63 98 1009.4
20260506093210 43 352 1.0 2.0 0.00 0.63 0.63 98 1009.5
20260506092708 43 34 0.0 0.0 0.00 0.63 0.63 98 1009.4
20260506092205 43 327 2.0 3.0 0.00 0.63 0.63 98 1009.6
20260506091703 43 13 1.0 1.0 0.00 0.63 0.63 98 1009.2
20260506091200 43 2 2.0 2.0 0.00 0.63 0.63 98 1008.9
20260506090658 43 7 0.0 1.0 0.00 0.63 0.63 98 1008.7
20260506090154 43 19 0.0 2.0 0.00 0.63 0.63 98 1008.9
20260506085651 43 1 2.0 2.0 0.00 0.63 0.63 98 1008.8
20260506085147 43 48 1.0 2.0 0.00 0.63 0.63 98 1008.6
20260506084644 43 336 2.0 4.0 0.00 0.63 0.63 99 1009.0
20260506084141 43 13 2.0 3.0 0.00 0.63 0.63 99 1009.2
20260506083638 43 26 1.0 3.0 0.00 0.63 0.63 99 1009.3
20260506083136 43 17 1.0 2.0 0.07 0.63 0.63 99 1009.0
20260506082632 43 22 2.0 2.0 0.07 0.63 0.63 99 1009.2
20260506082128 43 352 3.0 4.0 0.00 0.62 0.62 99 1009.1
20260506081626 44 336 4.0 6.0 0.00 0.62 0.62 99 1008.6
20260506081124 44 355 1.0 3.0 0.00 0.62 0.62 99 1008.3
20260506080621 44 349 3.0 6.0 0.00 0.62 0.62 99 1008.5
20260506080118 44 353 3.0 3.0 0.00 0.62 0.62 99 1008.7
20260506073101 45 1 4.0 9.0 0.12 0.59 0.59 99 1008.6
20260506072558 46 12 4.0 6.0 0.05 0.58 0.58 99 1008.7
20260506072056 46 9 2.0 6.0 0.07 0.57 0.57 99 1008.8
20260506071553 47 344 4.0 7.0 0.07 0.57 0.57 99 1008.5
20260506071051 47 349 2.0 4.0 0.12 0.56 0.56 99 1008.3
20260506070548 46 357 2.0 4.0 0.24 0.56 0.56 99 1008.3
20260506062022 47 304 2.0 7.0 0.05 0.47 0.47 99 1008.0
20260506061518 47 324 1.0 2.0 0.07 0.46 0.46 99 1008.0
20260506061016 47 22 3.0 4.0 0.12 0.46 0.46 99 1007.9
20260506060514 47 25 2.0 7.0 0.12 0.45 0.45 99 1007.7
20260506050943 49 346 2.0 3.0 0.31 0.33 0.33 99 1007.7
20260506050441 49 32 2.0 4.0 0.31 0.31 0.31 99 1007.8
20260506044931 50 24 3.0 6.0 0.35 0.23 0.23 99 1007.4
20260506044429 50 346 2.0 3.0 0.35 0.21 0.21 99 1007.3
20260506043926 50 285 2.0 3.0 0.14 0.16 0.16 99 1007.6
20260506043423 50 37 2.0 2.0 0.19 0.15 0.15 99 1007.3
20260506042921 50 314 4.0 7.0 0.17 0.14 0.14 99 1007.4
20260506042420 51 6 1.0 3.0 0.17 0.12 0.12 99 1007.4
20260506041918 51 12 2.0 4.0 0.19 0.11 0.11 99 1007.5
20260506041415 51 35 0.0 1.0 0.31 0.09 0.09 99 1007.6
20260506040912 51 20 3.0 3.0 0.54 0.08 0.08 99 1007.5
20260506040410 52 334 3.0 7.0 0.42 0.03 0.03 99 1007.3
20260506035905 53 344 2.0 3.0 0.24 0.83 0.83 99 1007.3
20260506035403 53 354 0.0 1.0 0.12 0.80 0.80 99 1006.8
20260506034900 54 9 2.0 2.0 0.12 0.79 0.79 99 1006.7
20260506034357 54 0 1.0 2.0 0.07 0.78 0.78 99 1006.7
20260506033854 55 334 0.0 2.0 0.00 0.77 0.77 99 1006.7
20260506033351 55 300 0.0 0.0 0.00 0.77 0.77 99 1007.2
20260506032848 55 356 1.0 1.0 0.00 0.77 0.77 99 1006.8
20260506032344 56 308 1.0 2.0 0.00 0.77 0.77 99 1006.7
20260506031841 59 230 0.0 0.0 0.00 0.77 0.77 99 1007.0
20260506031339 59 162 0.0 0.0 0.00 0.77 0.77 99 1006.9
20260506030836 59 162 0.0 0.0 0.00 0.77 0.77 99 1006.8
20260506030334 59 162 0.0 0.0 0.05 0.77 0.77 99 1006.9
20260506025831 59 162 0.0 0.0 0.05 0.77 0.77 99 1006.9
20260506025327 59 162 0.0 0.0 0.07 0.76 0.76 99 1007.0
20260506024824 59 162 0.0 0.0 0.12 0.76 0.76 99 1007.0
20260506024321 59 162 0.0 0.0 0.19 0.75 0.75 99 1007.2
20260506023817 59 161 0.0 0.0 0.19 0.74 0.74 99 1007.4
20260506023314 59 161 0.0 0.0 0.12 0.72 0.72 99 1007.6
20260506022811 59 161 0.0 0.0 0.19 0.71 0.71 99 1008.0
20260506022309 59 161 0.0 0.0 0.17 0.70 0.70 99 1007.9
20260506021807 59 161 0.0 0.0 0.05 0.68 0.68 99 1008.0
20260506021303 59 161 0.0 0.0 0.07 0.67 0.67 99 1008.0
20260506020800 59 161 0.0 0.0 0.07 0.67 0.67 99 1007.9
20260506020258 59 161 0.0 0.0 0.12 0.66 0.66 99 1007.9
20260506015755 59 161 0.0 0.0 0.24 0.66 0.66 99 1007.7
20260506015253 59 162 0.0 0.0 0.24 0.64 0.64 99 1007.6
20260506014749 59 162 0.0 0.0 0.12 0.61 0.61 99 1007.8
20260506014246 59 162 0.0 0.0 0.07 0.60 0.60 99 1008.0
20260506013743 59 162 0.0 0.0 0.00 0.59 0.59 99 1007.8
20260506013240 59 162 0.0 0.0 0.00 0.59 0.59 99 1007.7
20260506012736 59 162 0.0 0.0 0.00 0.59 0.59 99 1007.8
20260506012233 59 162 0.0 0.0 0.00 0.59 0.59 99 1007.7
20260506011731 59 162 0.0 0.0 0.05 0.59 0.59 99 1007.4
20260506011227 59 163 0.0 0.0 0.12 0.59 0.59 99 1007.6
20260506010725 59 152 0.0 0.0 0.19 0.58 0.58 99 1007.6
20260506010222 59 218 0.0 0.0 0.24 0.57 0.57 99 1007.6
20260506005720 59 218 0.0 0.0 0.35 0.55 0.55 99 1007.7
20260506005216 59 219 0.0 0.0 0.31 0.52 0.52 99 1007.9
20260506004712 59 220 0.0 0.0 0.19 0.49 0.49 99 1008.0
20260506004210 59 220 0.0 0.0 0.07 0.47 0.47 99 1007.7
20260506003706 59 202 0.0 0.0 0.00 0.46 0.46 99 1007.3
20260506003202 60 250 0.0 0.0 0.00 0.46 0.46 99 1007.4
20260506002658 60 130 0.0 0.0 0.00 0.46 0.46 99 1007.5
20260506002154 60 130 0.0 0.0 0.05 0.46 0.46 99 1007.3
20260506001650 60 130 0.0 0.0 0.05 0.46 0.46 99 1007.2
20260506001148 60 130 0.0 0.0 0.07 0.45 0.45 99 1007.2
20260506000645 60 129 0.0 0.0 0.07 0.45 0.45 99 1006.9
20260506000142 60 129 0.0 0.0 0.00 0.44 0.44 99 1006.8
20260505235640 60 129 0.0 0.0 0.05 0.44 0.44 99 1007.0
20260505235137 60 129 0.0 0.0 0.05 0.44 0.44 99 1007.0
20260505234634 60 159 0.0 1.0 0.00 0.43 0.43 99 1007.3
20260505234131 60 167 0.0 0.0 0.00 0.43 0.43 99 1007.0
20260505233628 60 167 0.0 0.0 0.07 0.43 0.43 99 1007.0
20260505233126 60 162 1.0 2.0 0.12 0.43 0.43 99 1007.5
20260505232623 60 147 0.0 1.0 0.12 0.42 0.42 99 1007.6
20260505232120 60 183 0.0 1.0 0.07 0.41 0.41 99 1007.5
20260505231617 60 191 1.0 2.0 0.00 0.40 0.40 99 1007.7
20260505231116 60 181 0.0 0.0 0.00 0.40 0.40 99 1007.5
20260505230614 60 160 0.0 0.0 0.00 0.40 0.40 99 1007.5
20260505230109 60 155 0.0 0.0 0.00 0.40 0.40 98 1007.5
20260505225606 60 164 1.0 1.0 0.00 0.40 0.40 98 1007.4
20260505225102 61 178 1.0 2.0 0.00 0.40 0.40 98 1007.7
20260505224559 61 155 2.0 2.0 0.00 0.40 0.40 98 1007.6
20260505224056 61 180 0.0 0.0 0.00 0.40 0.40 98 1007.7
20260505223554 61 142 1.0 2.0 0.00 0.40 0.40 98 1007.7
20260505223050 61 167 2.0 2.0 0.00 0.40 0.40 98 1007.8
20260505222546 61 185 1.0 1.0 0.00 0.40 0.40 98 1007.9
20260505222042 61 146 5.0 7.0 0.00 0.40 0.40 98 1007.9
20260505221540 61 166 2.0 3.0 0.00 0.40 0.40 98 1007.9
20260505221036 60 172 0.0 2.0 0.00 0.40 0.40 98 1008.0
20260505220533 60 182 4.0 7.0 0.00 0.40 0.40 98 1008.1
20260505220031 60 166 1.0 3.0 0.00 0.40 0.40 99 1008.3
20260505215529 60 167 2.0 4.0 0.00 0.40 0.40 99 1008.1
20260505215026 60 177 1.0 3.0 0.05 0.40 0.40 98 1008.3
20260505214524 60 163 1.0 3.0 0.00 0.39 0.39 98 1008.2
20260505214021 60 326 1.0 2.0 0.00 0.39 0.39 98 1008.2
20260505213519 60 186 2.0 3.0 0.00 0.39 0.39 98 1008.3
20260505213015 61 186 3.0 4.0 0.07 0.39 0.39 98 1008.1
20260505212511 61 169 0.0 2.0 0.05 0.38 0.38 98 1008.3
20260505212009 61 193 1.0 2.0 0.07 0.37 0.37 98 1008.2
20260505211506 61 205 1.0 2.0 0.00 0.36 0.36 97 1008.2
20260505211002 61 159 1.0 4.0 0.00 0.36 0.36 97 1008.4
20260505210459 61 157 2.0 4.0 0.00 0.36 0.36 97 1008.5
20260505205956 61 163 2.0 3.0 0.00 0.36 0.36 97 1008.4
20260505205454 61 192 0.0 4.0 0.00 0.36 0.36 97 1008.4
20260505204950 61 170 2.0 3.0 0.07 0.36 0.36 97 1008.4
20260505204449 61 170 1.0 3.0 0.07 0.36 0.36 97 1008.3
20260505203946 61 152 0.0 2.0 0.00 0.35 0.35 97 1008.3
20260505203442 61 162 1.0 2.0 0.00 0.35 0.35 97 1008.4
20260505202938 61 151 1.0 4.0 0.00 0.35 0.35 97 1008.4
20260505202435 61 160 1.0 2.0 0.05 0.35 0.35 97 1008.4
20260505201931 61 267 0.0 3.0 0.05 0.35 0.35 97 1008.4
20260505201428 61 153 1.0 3.0 0.00 0.34 0.34 97 1008.6
20260505200926 61 155 0.0 1.0 0.07 0.34 0.34 97 1008.7
20260505200423 61 158 0.0 2.0 0.07 0.34 0.34 97 1008.5
20260505195919 61 268 1.0 1.0 0.05 0.33 0.33 96 1008.6
20260505195417 61 189 1.0 4.0 0.07 0.32 0.32 96 1008.7
20260505194914 61 169 0.0 0.0 0.12 0.32 0.32 95 1008.8
20260505194411 61 192 1.0 2.0 0.12 0.31 0.31 95 1008.9
20260505193911 61 224 1.0 2.0 0.12 0.30 0.30 94 1009.1
20260505193409 62 299 1.0 1.0 0.12 0.29 0.29 94 1009.3
20260505192907 62 190 1.0 4.0 0.12 0.28 0.28 93 1009.3
20260505192405 62 176 2.0 2.0 0.24 0.27 0.27 92 1009.4
20260505191902 63 161 1.0 3.0 0.38 0.26 0.26 90 1009.2
20260505191401 65 206 2.0 6.0 0.19 0.23 0.23 84 1009.1
20260505190857 67 199 1.0 4.0 0.00 0.20 0.20 76 1008.9
20260505190352 67 187 1.0 3.0 0.00 0.20 0.20 73 1008.7
20260505185848 68 183 0.0 6.0 0.00 0.20 0.20 72 1008.8
20260505185345 68 183 2.0 3.0 0.00 0.20 0.20 73 1008.7
20260505184841 68 228 1.0 8.0 0.00 0.20 0.20 71 1008.6
20260505184338 68 273 3.0 9.0 0.00 0.20 0.20 72 1008.8
20260505183835 68 165 3.0 4.0 0.00 0.20 0.20 69 1008.8
20260505183332 68 154 2.0 2.0 0.00 0.20 0.20 71 1008.9
20260505182829 68 202 2.0 2.0 0.00 0.20 0.20 71 1008.9
20260505182325 67 181 5.0 8.0 0.00 0.20 0.20 71 1008.9
20260505181822 67 158 4.0 7.0 0.00 0.20 0.20 71 1009.0
20260505181320 67 149 1.0 4.0 0.00 0.20 0.20 72 1008.9
20260505180816 67 183 2.0 4.0 0.00 0.20 0.20 71 1009.3
20260505180312 67 221 1.0 4.0 0.00 0.20 0.20 71 1009.2
20260505175809 67 192 4.0 6.0 0.00 0.20 0.20 70 1009.1
20260505175306 67 182 2.0 6.0 0.00 0.20 0.20 70 1009.2
20260505174802 67 205 2.0 7.0 0.00 0.20 0.20 70 1009.2
20260505174259 67 191 1.0 6.0 0.00 0.20 0.20 71 1009.1
20260505173755 67 179 2.0 8.0 0.00 0.20 0.20 71 1009.3
20260505173252 66 185 3.0 6.0 0.00 0.20 0.20 72 1009.4
20260505172749 66 222 3.0 4.0 0.00 0.20 0.20 71 1009.3
20260505172246 67 172 2.0 3.0 0.00 0.20 0.20 72 1009.5
20260505171746 66 187 2.0 4.0 0.00 0.20 0.20 70 1009.4
20260505171243 67 175 3.0 4.0 0.00 0.20 0.20 71 1009.4
20260505170740 67 155 4.0 7.0 0.00 0.20 0.20 70 1009.5
20260505170237 67 147 2.0 4.0 0.00 0.20 0.20 71 1009.5
20260505165732 67 149 2.0 3.0 0.00 0.20 0.20 72 1009.4
20260505165228 66 213 1.0 4.0 0.00 0.20 0.20 69 1009.4
20260505164724 66 158 1.0 3.0 0.00 0.20 0.20 71 1009.6
20260505164221 66 151 4.0 6.0 0.00 0.20 0.20 71 1009.4
20260505163719 66 170 3.0 6.0 0.00 0.20 0.20 72 1009.5
20260505163218 66 170 3.0 6.0 0.00 0.20 0.20 71 1009.5
20260505162715 66 216 1.0 3.0 0.00 0.20 0.20 71 1009.4
20260505162212 67 189 2.0 6.0 0.00 0.20 0.20 70 1009.5
20260505161708 66 201 1.0 6.0 0.00 0.20 0.20 71 1009.5
20260505161206 66 207 1.0 4.0 0.00 0.20 0.20 72 1009.6